Hourly Weather Roundup
Issued by NWS Central Illinois

Home | Current Version | Previous Version | Text Only | Print | Product List | Glossary On
Versions: 1 2 3 4 5 6 7 8 9 10 11 12 13 14 15 16 17 18 19 20 21 22 23 24 25 26 27 28 29 30 31 32 33 34 35 36 37 38 39 40 41 42 43 44 45 46 47 48 49 50
325
NZUS43 KILX 252210
HWRILX

AREA WEATHER ROUNDUP
NATIONAL WEATHER SERVICE, LINCOLN IL
400 PM CST SAT FEB 25 2017


CITY           SKY/WX    TMP DP  RH WIND       PRES   REMARKS
BLOOMINGTON    MOSUNNY   32  18  56 W15G23    30.01R WCI  22
CHAMPAIGN      MOSUNNY   34  13  41 W20G30    30.01R WCI  23
DECATUR        SUNNY     35  13  40 W15G26    30.04R WCI  25
EFFINGHAM      MOSUNNY  N/A N/A N/A W18       30.07R
FLORA          MOSUNNY   39  17  41 W14G24    30.07S WCI  31
GALESBURG      CLOUDY    30  18  60 NW13G20   30.04R WCI  20
JACKSONVILLE   MOSUNNY   34  13  42 W13G21    30.07S WCI  25
LACON          SUNNY     31  17  54 W15G22    30.00S WCI  20
LAWRENCEVILLE  PTSUNNY   38  18  44 W17G26    30.06R WCI  28
LITCHFIELD     SUNNY     35  17  46 W21       30.07R WCI  24
$$


CITY           SKY/WX    TMP DP  RH WIND       PRES   REMARKS
LINCOLN        MOSUNNY   34  15  46 W8G20     30.04S WCI  27
MACOMB         SUNNY     33  15  48 W20       30.08R WCI  21
MATTOON        SUNNY     35  14  42 W21       30.02R WCI  24
MT CARMEL AP   PTSUNNY   38  20  49 W17       30.06S WCI  28
OLNEY-NOBLE AP MOSUNNY   36  19  51 W20       30.06S WCI  25
PARIS          SUNNY     35  16  45 W17G25    30.02S WCI  25
PEORIA         MOSUNNY   31  15  52 W14       30.03R WCI  21
PONTIAC        PTSUNNY   32  18  55 W25       29.99R WCI  18
RANTOUL        PTSUNNY   33  19  58 W18       30.00R WCI  21
SPRINGFIELD    MOSUNNY   36  14  40 NW18      30.06R WCI  26
TAYLORVILLE    SUNNY     34  13  42 W14G24    30.06R WCI  25
$$

...REGIONAL REPORTS...


CITY           SKY/WX    TMP DP  RH WIND       PRES   REMARKS
CHICAGO O`HARE FLURRIES  27  14  58 W21G26    29.93R WCI  13
KANKAKEE       CLOUDY    29  16  57 W15G29    29.97R WCI  18
MOLINE         MOSUNNY   33  16  49 NW17      30.02R WCI  22
MOUNT STERLING MOSUNNY   33  14  45 NW13      30.06S WCI  24
MOUNT VERNON   SUNNY     39  15  37 W10G18    30.08R WCI  32
PITTSFIELD     MOSUNNY   36  12  38 NW10      30.09R WCI  28
QUINCY         MOSUNNY   35  11  36 NW13      30.07S WCI  26
ROCKFORD       MOSUNNY   27  14  58 NW17G29   29.97R WCI  14
$$


CITY           SKY/WX    TMP DP  RH WIND       PRES   REMARKS
BURLINGTON     SUNNY     33  16  49 NW13      30.05S WCI  24
CEDAR RAPIDS   SUNNY     28  18  66 NW14      30.02S WCI  17
DES MOINES     CLOUDY    32  17  54 W9        30.05F WCI  24
KIRKSVILLE     CLOUDY    37  11  34 NW7       30.08F WCI  32
OTTUMWA        CLOUDY    33  15  47 W9        30.06S WCI  25
ST LOUIS       MOSUNNY   41  12  30 W16G28    30.09S WCI  33
$$


CITY           SKY/WX    TMP DP  RH WIND       PRES   REMARKS
TERRE HAUTE    PTSUNNY   35  15  44 W17G24    30.02R WCI  25
EVANSVILLE     MOSUNNY   40  17  39 W14G23    30.07R WCI  32
INDIANAPOLIS   CLOUDY    32  16  51 W21       29.98R WCI  20
LAFAYETTE      CLOUDY    29  19  66 W24G32    29.97R WCI  15
MADISON        MOSUNNY   24  11  57 NW12G23   29.91R WCI  13
MILWAUKEE      PTSUNNY   23  11  60 W14       29.90R WCI  11
$$






USA.gov is the U.S. government's official web portal to all federal, state and local government web resources and services.